DMSP 5D-2 F13 DEB, 40581

Orbit data source: Space-Track

DMSP 5D-2 F13 DEB, 40581 is space debris in SSO originally from a launch on Fri, 24 Mar 1995 UTC launched from the Air Force Western Test Range (AFWTR). Debris objects in space refer to the collection of defunct objects orbiting the Earth. Examples of debris include non-operational satellites, rocket bodies, and fragments generated from explosions, collisions, or faulty payload assembly.

Loading next visibility...
Identifier
40581, 1995-015EQ
Orbit
SSO
Country
Flag of USUS
Related business
Manufacturer
Unknown
Mission
Spacecraft
Bus & Motor
Unknown
Mass
Unknown
Launch date (UTC)
1995-03-24 (31 years ago)
Launch vehicle
Unknown
Launch site
Air Force Western Test Range (AFWTR)
Object type
Payload
Rocket body
Debris
Shape & HBR
Unknown shape, 0.1 m
Radar Cross Section
Small (<0.1 m²)

Expand to show TLE details & history
Last TLE update: 10 hours ago

TLE from 10 hours ago
0 DMSP 5D-2 F13 DEB
1 40581U 95015EQ  25292.05485579  .00009011  00000-0  32139-2 0  9992
2 40581  98.7151 327.1657 0018545 281.3192  78.5908 14.34311572546071
Epoch: 2025-10-19T01:18Z
TLE epoch observation values (Epoch: 2025-10-19T01:18:59.540Z)
Latitude
-0.00006°
Longitude
-80.3594°
Altitude
777.687 km
Speed
7.466 km/s
True Right ascension
21h 48m 39s
True Declination
0° 00' 00"
Sunlit
Object was in full shadow at epoch
Visualization orbit readout
Latitude
Unknown
Longitude
Unknown
Altitude
Unknown
Speed
Unknown
Apparent Right ascension
Unknown
Apparent Declination
Unknown
Sunlit
N/A
Visualization observer readout
Local Sidereal Time
06:18:01
Azimuth
Unknown
Elevation
Unknown
Doppler factor
Unknown
Orbital elements
Apogee altitude
787.759 km
Perigee altitude
761.23 km
Semi-major axis
7,152.632 km
Eccentricity
0.00185
Inclination
98.7151°
RAAN
327.1657°
Arg. of periapsis
281.3192°
True anomaly
78.79921°
Mean anomaly
78.5908°
Eccentric anomaly
78.69499°
Mean motion
3.58793 °/min
Orbital period
100.34 mins
BSTAR
0.0032139

Documentation

Showing up to 5 results
|